{"data":{"norad_id":59766,"epoch":"2026-09-21T12:42:53.781696Z","epoch_age_seconds":82388,"freshness":"FRESH","line1":"1 59766U 24091P   26264.52978914 -.00000702  00000+0 -96344-5 0  9995","line2":"2 59766  53.1557 192.6101 0001504  81.8227 278.2946 15.34381797133057","mean_motion":15.34381797,"eccentricity":0.0001504,"inclination_deg":53.1557,"raan_deg":192.6101,"arg_perigee_deg":81.8227,"mean_anomaly_deg":278.2946,"bstar":-9.6344e-6,"rev_number":13305,"period_min":93.848871435745,"perigee_km":461.72847338476,"apogee_km":463.78621440341,"semimajor_km":6840.8943438941,"source":"CELESTRAK","updated_at":"2026-09-22T09:00:49.069529Z"}}